When you browse on this site, cookies collect data to enhance your experience and personalize the content and advertising you see.
Visit our Privacy Policy to learn more. By continuing to use the site, you agree to this use of cookies and data.
  • In Sweden
  • List of Countries
  • For 7 days
  • Water Temperature
  • Weather Map
  • Weather Widgets
  • user-avatar
    Login

    Hourly Weather Córdoba

    Today, 20 September, Friday

    Time Temperature Precipitation Wind Pressure Humidity
    00:00 +10°C° 0 mm 1 mps 727 mmHg 21%
    01:00 +9°C° 0 mm 1 mps 727 mmHg 22%
    02:00 +9°C° 0 mm 1 mps 727 mmHg 22%
    03:00 +9°C° 0 mm 1 mps 727 mmHg 22%
    04:00 +8°C° 0 mm 1 mps 727 mmHg 22%
    05:00 +8°C° 0 mm 1 mps 727 mmHg 22%
    06:00 +10°C° 0 mm 1 mps 728 mmHg 20%
    07:00 +12°C° 0 mm 1 mps 729 mmHg 18%
    08:00 +13°C° 0 mm 1 mps 729 mmHg 15%
    09:00 +15°C° 0 mm 1 mps 729 mmHg 14%
    10:00 +17°C° 0 mm 2 mps 729 mmHg 12%
    11:00 +19°C° 0 mm 2 mps 730 mmHg 11%
    12:00 +20°C° 0 mm 2 mps 729 mmHg 10%
    13:00 +21°C° 0 mm 3 mps 728 mmHg 10%
    14:00 +22°C° 0 mm 3 mps 728 mmHg 10%
    15:00 +21°C° 0 mm 4 mps 728 mmHg 10%
    16:00 +21°C° 0 mm 4 mps 727 mmHg 11%
    17:00 +21°C° 0 mm 4 mps 727 mmHg 12%
    18:00 +18°C° 0 mm 4 mps 727 mmHg 15%
    19:00 +16°C° 0 mm 3 mps 728 mmHg 17%
    20:00 +13°C° 0 mm 3 mps 728 mmHg 20%
    21:00 +13°C° 0 mm 3 mps 728 mmHg 20%
    22:00 +12°C° 0 mm 3 mps 728 mmHg 20%
    23:00 +12°C° 0 mm 3 mps 729 mmHg 21%

    Tomorrow, 21 September, Saturday

    Time Temperature Precipitation Wind Pressure Humidity
    00:00 +12°C° 0 mm 3 mps 729 mmHg 21%
    01:00 +11°C° 0 mm 3 mps 728 mmHg 22%
    02:00 +11°C° 0 mm 3 mps 728 mmHg 23%
    03:00 +10°C° 0 mm 3 mps 728 mmHg 24%
    04:00 +10°C° 0 mm 3 mps 728 mmHg 24%
    05:00 +10°C° 0 mm 2 mps 728 mmHg 25%
    06:00 +13°C° 0 mm 2 mps 728 mmHg 24%
    07:00 +14°C° 0 mm 2 mps 729 mmHg 22%
    08:00 +16°C° 0 mm 2 mps 729 mmHg 21%
    09:00 +18°C° 0 mm 3 mps 729 mmHg 17%
    10:00 +21°C° 0 mm 3 mps 729 mmHg 14%
    11:00 +23°C° 0 mm 4 mps 729 mmHg 11%
    12:00 +25°C° 0 mm 4 mps 729 mmHg 11%
    13:00 +26°C° 0 mm 4 mps 728 mmHg 11%
    14:00 +27°C° 0 mm 4 mps 728 mmHg 11%
    15:00 +26°C° 0 mm 4 mps 727 mmHg 13%
    16:00 +26°C° 0 mm 5 mps 727 mmHg 14%
    17:00 +25°C° 0 mm 5 mps 727 mmHg 16%
    18:00 +22°C° 0 mm 4 mps 727 mmHg 19%
    19:00 +19°C° 0 mm 4 mps 727 mmHg 23%
    20:00 +17°C° 0 mm 3 mps 728 mmHg 27%
    21:00 +16°C° 0 mm 3 mps 728 mmHg 28%
    22:00 +14°C° 0 mm 3 mps 729 mmHg 29%
    23:00 +14°C° 0 mm 3 mps 729 mmHg 31%

    Day after tomorrow, 22 September, Sunday

    Time Temperature Precipitation Wind Pressure Humidity
    00:00 +13°C° 0 mm 3 mps 729 mmHg 32%
    01:00 +14°C° 0 mm 2 mps 729 mmHg 33%
    02:00 +14°C° 0 mm 2 mps 729 mmHg 34%
    03:00 +13°C° 0 mm 2 mps 729 mmHg 36%
    04:00 +13°C° 0 mm 2 mps 729 mmHg 37%
    05:00 +12°C° 0 mm 2 mps 729 mmHg 39%
    06:00 +13°C° 0 mm 3 mps 730 mmHg 37%
    07:00 +14°C° 0 mm 3 mps 730 mmHg 35%
    08:00 +17°C° 0 mm 4 mps 731 mmHg 33%
    09:00 +19°C° 0 mm 5 mps 731 mmHg 29%
    10:00 +21°C° 0 mm 6 mps 731 mmHg 25%
    11:00 +22°C° 0 mm 7 mps 731 mmHg 21%
    12:00 +23°C° 0 mm 7 mps 730 mmHg 20%
    13:00 +24°C° 0 mm 7 mps 730 mmHg 19%
    14:00 +24°C° 0 mm 7 mps 729 mmHg 17%
    15:00 +24°C° 0 mm 7 mps 728 mmHg 18%
    16:00 +23°C° 0 mm 7 mps 728 mmHg 18%
    17:00 +23°C° 0 mm 7 mps 727 mmHg 19%
    18:00 +20°C° 0 mm 6 mps 728 mmHg 25%
    19:00 +18°C° 0 mm 4 mps 728 mmHg 31%
    20:00 +16°C° 0 mm 3 mps 728 mmHg 38%
    21:00 +14°C° 0 mm 3 mps 728 mmHg 41%
    22:00 +14°C° 0 mm 3 mps 728 mmHg 44%
    23:00 +13°C° 0 mm 3 mps 728 mmHg 48%

    23 September, Monday

    Time Temperature Precipitation Wind Pressure Humidity
    00:00 +13°C° 0 mm 2 mps 728 mmHg 51%
    01:00 +13°C° 0 mm 2 mps 727 mmHg 54%
    02:00 +12°C° 0 mm 2 mps 727 mmHg 57%
    03:00 +12°C° 0 mm 2 mps 727 mmHg 60%
    04:00 +11°C° 0 mm 1 mps 727 mmHg 64%
    05:00 +11°C° 0 mm 1 mps 727 mmHg 67%
    06:00 +12°C° 0 mm 1 mps 728 mmHg 64%
    07:00 +13°C° 0 mm 1 mps 728 mmHg 61%
    08:00 +15°C° 0 mm 1 mps 729 mmHg 58%
    09:00 +18°C° 0 mm 1 mps 729 mmHg 50%
    10:00 +19°C° 0 mm 2 mps 729 mmHg 42%
    11:00 +23°C° 0 mm 2 mps 729 mmHg 34%
    12:00 +24°C° 0 mm 2 mps 729 mmHg 31%
    13:00 +25°C° 0 mm 2 mps 729 mmHg 28%
    14:00 +27°C° 0 mm 2 mps 728 mmHg 25%
    15:00 +27°C° 0 mm 2 mps 728 mmHg 25%
    16:00 +26°C° 0 mm 2 mps 728 mmHg 25%
    17:00 +26°C° 0 mm 2 mps 728 mmHg 26%
    18:00 +24°C° 0 mm 2 mps 728 mmHg 31%
    19:00 +22°C° 0 mm 1 mps 728 mmHg 37%
    20:00 +19°C° 0 mm 1 mps 729 mmHg 42%
    21:00 +19°C° 0 mm 1 mps 729 mmHg 44%
    22:00 +18°C° 0 mm 1 mps 729 mmHg 46%
    23:00 +18°C° 0 mm 1 mps 730 mmHg 48%

    24 September, Tuesday

    Time Temperature Precipitation Wind Pressure Humidity
    00:00 +16°C° 0 mm 1 mps 730 mmHg 47%
    01:00 +16°C° 0 mm 1 mps 730 mmHg 47%
    02:00 +16°C° 0 mm 1 mps 730 mmHg 46%
    03:00 +15°C° 0 mm 1 mps 730 mmHg 43%
    04:00 +15°C° 0 mm 1 mps 730 mmHg 40%
    05:00 +15°C° 0 mm 1 mps 730 mmHg 37%
    06:00 +16°C° 0 mm 1 mps 730 mmHg 32%
    07:00 +19°C° 0 mm 1 mps 731 mmHg 28%
    08:00 +21°C° 0 mm 1 mps 731 mmHg 23%
    09:00 +22°C° 0 mm 1 mps 731 mmHg 21%
    10:00 +24°C° 0 mm 2 mps 731 mmHg 19%
    11:00 +26°C° 0 mm 2 mps 731 mmHg 16%
    12:00 +27°C° 0 mm 2 mps 730 mmHg 15%
    13:00 +28°C° 0 mm 2 mps 730 mmHg 13%
    14:00 +29°C° 0 mm 2 mps 729 mmHg 12%
    15:00 +29°C° 0 mm 3 mps 729 mmHg 12%
    16:00 +28°C° 0 mm 3 mps 728 mmHg 12%
    17:00 +28°C° 0 mm 3 mps 728 mmHg 13%
    18:00 +25°C° 0 mm 2 mps 728 mmHg 18%
    19:00 +23°C° 0 mm 2 mps 728 mmHg 22%
    20:00 +19°C° 0 mm 2 mps 729 mmHg 27%
    21:00 +18°C° 0 mm 2 mps 729 mmHg 29%
    22:00 +19°C° 0 mm 1 mps 729 mmHg 30%
    23:00 +18°C° 0 mm 1 mps 729 mmHg 32%

    25 September, Wednesday

    Time Temperature Precipitation Wind Pressure Humidity
    00:00 +18°C° 0 mm 1 mps 729 mmHg 33%
    01:00 +16°C° 0 mm 1 mps 729 mmHg 35%
    02:00 +16°C° 0 mm 1 mps 729 mmHg 36%
    03:00 +15°C° 0 mm 1 mps 729 mmHg 37%
    04:00 +15°C° 0 mm 1 mps 729 mmHg 38%
    05:00 +15°C° 0 mm 1 mps 729 mmHg 39%
    06:00 +17°C° 0 mm 2 mps 729 mmHg 37%
    07:00 +18°C° 0 mm 2 mps 730 mmHg 34%
    08:00 +20°C° 0 mm 2 mps 730 mmHg 32%
    09:00 +22°C° 0 mm 3 mps 730 mmHg 28%
    10:00 +26°C° 0 mm 4 mps 730 mmHg 24%
    11:00 +28°C° 0 mm 4 mps 730 mmHg 20%
    12:00 +28°C° 0 mm 5 mps 729 mmHg 19%
    13:00 +29°C° 0 mm 5 mps 729 mmHg 18%
    14:00 +30°C° 0 mm 5 mps 728 mmHg 17%
    15:00 +29°C° 0 mm 5 mps 728 mmHg 18%
    16:00 +28°C° 0 mm 5 mps 727 mmHg 20%
    17:00 +27°C° 0 mm 5 mps 726 mmHg 21%
    18:00 +25°C° 0 mm 5 mps 726 mmHg 27%
    19:00 +21°C° 0 mm 4 mps 726 mmHg 33%
    20:00 +19°C° 0 mm 3 mps 726 mmHg 39%
    21:00 +18°C° 0 mm 3 mps 727 mmHg 42%
    22:00 +17°C° 0 mm 3 mps 727 mmHg 45%
    23:00 +16°C° 0 mm 2 mps 727 mmHg 48%
    Show more